Location: Potomac
(46.8816°N, 113.5795°W)
Time: 19:59:16
(UTC+00:00)

JY1SAT - Pass Details

Date: 03 July 2022
Orbit: 563 x 587 km, 97.6° (Epoch: 11 August)

Event Time Altitude Azimuth Distance (km) Brightness Sun altitude
Exits shadow 05:55:11 10° 215° (SW) 1,888 ? -16.4°
Maximum altitude 05:58:22 22° 267° (W) 1,296 ? -16.6°
Drops below altitude 10° 06:01:40 10° 319° (NW) 1,922 ? -16.8°
Sets 06:04:14 0° 335° (NNW) 2,826 ? -17.0°
